VJT711 LSZA-EDJA

Flight info

Callsign VJT711
Flight time 0h 28m
Altitude 28000
Route CANNE DCT PIXOS DCT XAMEX DCT BEMKI DCT KPT KPT1C
Aircraft C700/M-SBDGHM1RWXY/LB2

Departure

Time 2026-05-06 12:28
Airport Lugano Airport (LSZA)

Arrival

Time 2026-05-06 12:56
Airport Memmingen Allgau Airport (EDJA)
Time Latitude Longitude Altitude Speed Heading
2026-05-06 12:15 46.00194 8.90728 0 ft 0 kts 199°
2026-05-06 12:24 46.00180 8.90722 897 ft 7 kts 193°
2026-05-06 12:24 46.00159 8.90803 897 ft 15 kts 56°
2026-05-06 12:24 46.00252 8.90861 897 ft 15 kts 18°
2026-05-06 12:24 46.00363 8.90914 897 ft 19 kts 18°
2026-05-06 12:25 46.00457 8.90979 897 ft 9 kts 81°
2026-05-06 12:25 46.00451 8.91061 900 ft 9 kts 56°
2026-05-06 12:25 46.00518 8.91105 901 ft 13 kts 17°
2026-05-06 12:25 46.00618 8.91152 898 ft 17 kts 19°
2026-05-06 12:26 46.00742 8.91215 896 ft 20 kts 18°
2026-05-06 12:26 46.00882 8.91282 894 ft 22 kts 19°
2026-05-06 12:26 46.01011 8.91331 896 ft 14 kts 348°
2026-05-06 12:26 46.01030 8.91355 896 ft 6 kts 194°
2026-05-06 12:27 46.01022 8.91351 896 ft 0 kts 198°
2026-05-06 12:27 46.00981 8.91331 895 ft 29 kts 199°
2026-05-06 12:27 46.00426 8.91059 907 ft 137 kts 200°
2026-05-06 12:27 45.99313 8.90497 1455 ft 199 kts 199°
2026-05-06 12:28 45.97899 8.89562 2589 ft 243 kts 207°
2026-05-06 12:28 45.96309 8.88422 4313 ft 266 kts 202°
2026-05-06 12:28 45.94443 8.87830 6152 ft 282 kts 187°
2026-05-06 12:28 45.92506 8.87188 8095 ft 290 kts 196°
2026-05-06 12:29 45.90644 8.86228 10479 ft 278 kts 202°
2026-05-06 12:29 45.88815 8.85131 11973 ft 301 kts 205°
2026-05-06 12:29 45.87002 8.83405 13174 ft 327 kts 219°
2026-05-06 12:29 45.85409 8.80912 14617 ft 340 kts 232°
2026-05-06 12:30 45.84043 8.78160 16221 ft 347 kts 232°
2026-05-06 12:30 45.82612 8.75321 17738 ft 356 kts 233°
2026-05-06 12:30 45.81552 8.72071 19096 ft 367 kts 252°
2026-05-06 12:30 45.81263 8.68413 20563 ft 375 kts 266°
2026-05-06 12:31 45.81734 8.64693 21929 ft 389 kts 283°
2026-05-06 12:31 45.83029 8.61187 23235 ft 408 kts 300°
2026-05-06 12:31 45.85076 8.58232 24236 ft 428 kts 313°
2026-05-06 12:31 45.87471 8.55602 25114 ft 440 kts 317°
2026-05-06 12:32 45.90126 8.53249 25716 ft 461 kts 327°
2026-05-06 12:32 45.93254 8.51768 26215 ft 487 kts 344°
2026-05-06 12:32 45.96707 8.51490 26720 ft 507 kts
2026-05-06 12:32 46.00240 8.52454 26988 ft 520 kts 15°
2026-05-06 12:33 46.03440 8.54593 27240 ft 506 kts 31°
2026-05-06 12:33 46.06293 8.57646 27515 ft 511 kts 41°
2026-05-06 12:33 46.08927 8.61035 27794 ft 510 kts 44°
2026-05-06 12:33 46.11513 8.64469 27880 ft 519 kts 43°
2026-05-06 12:34 46.14349 8.67853 27883 ft 538 kts 37°
2026-05-06 12:34 46.17454 8.70916 27889 ft 538 kts 32°
2026-05-06 12:34 46.20640 8.73762 27880 ft 541 kts 31°
2026-05-06 12:34 46.23816 8.76686 27883 ft 541 kts 34°
2026-05-06 12:35 46.26864 8.79898 27890 ft 539 kts 38°
2026-05-06 12:35 46.29838 8.83183 27879 ft 540 kts 37°
2026-05-06 12:35 46.32929 8.86312 27857 ft 540 kts 34°
2026-05-06 12:35 46.36065 8.89285 27868 ft 540 kts 33°
2026-05-06 12:36 46.39151 8.92390 27878 ft 542 kts 36°
2026-05-06 12:36 46.42189 8.95653 27857 ft 542 kts 37°
2026-05-06 12:36 46.45207 8.98800 27864 ft 541 kts 35°
2026-05-06 12:36 46.48316 9.01866 27855 ft 540 kts 34°
2026-05-06 12:37 46.51418 9.04964 27846 ft 541 kts 35°
2026-05-06 12:37 46.54469 9.08166 27836 ft 540 kts 36°
2026-05-06 12:37 46.57510 9.11366 27837 ft 539 kts 35°
2026-05-06 12:37 46.60593 9.14495 27834 ft 540 kts 34°
2026-05-06 12:38 46.63683 9.17609 27825 ft 541 kts 35°
2026-05-06 12:38 46.66745 9.20789 27834 ft 541 kts 36°
2026-05-06 12:38 46.69789 9.23987 27819 ft 536 kts 36°
2026-05-06 12:38 46.72761 9.27056 27551 ft 508 kts 35°
2026-05-06 12:39 46.75652 9.30007 27263 ft 509 kts 35°
2026-05-06 12:39 46.78516 9.32973 26987 ft 499 kts 36°
2026-05-06 12:39 46.81324 9.35918 26730 ft 498 kts 36°
2026-05-06 12:39 46.84137 9.38854 26465 ft 495 kts 35°
2026-05-06 12:40 46.86936 9.41748 26207 ft 492 kts 35°
2026-05-06 12:40 46.89721 9.44640 25947 ft 489 kts 36°
2026-05-06 12:40 46.92469 9.47522 25697 ft 485 kts 36°
2026-05-06 12:40 46.95211 9.50398 25437 ft 482 kts 35°
2026-05-06 12:41 46.97889 9.53193 25188 ft 477 kts 35°
2026-05-06 12:41 47.00765 9.55609 24778 ft 481 kts 22°
2026-05-06 12:41 47.03860 9.57272 24272 ft 466 kts 15°
2026-05-06 12:41 47.06967 9.58534 23680 ft 462 kts 13°
2026-05-06 12:42 47.10053 9.59747 23015 ft 457 kts 14°
2026-05-06 12:42 47.13038 9.61248 22250 ft 445 kts 20°
2026-05-06 12:42 47.15830 9.62898 21499 ft 421 kts 21°
2026-05-06 12:42 47.18526 9.64373 20778 ft 409 kts 18°
2026-05-06 12:43 47.21244 9.65658 20071 ft 410 kts 16°
2026-05-06 12:43 47.23942 9.66974 19359 ft 406 kts 18°
2026-05-06 12:43 47.26575 9.68388 18670 ft 401 kts 19°
2026-05-06 12:43 47.29153 9.69772 17970 ft 397 kts 19°
2026-05-06 12:44 47.31782 9.71110 17184 ft 393 kts 18°
2026-05-06 12:44 47.34319 9.72390 16473 ft 389 kts 18°
2026-05-06 12:44 47.36842 9.73703 15976 ft 381 kts 19°
2026-05-06 12:44 47.39314 9.75003 15487 ft 386 kts 19°
2026-05-06 12:45 47.41026 9.75895 15147 ft 384 kts 19°
2026-05-06 12:45 47.44152 9.77509 14514 ft 378 kts 18°
2026-05-06 12:45 47.49093 9.80082 13516 ft 376 kts 19°
2026-05-06 12:46 47.50726 9.80935 13160 ft 374 kts 19°
2026-05-06 12:46 47.53196 9.82221 12659 ft 368 kts 19°
2026-05-06 12:46 47.55566 9.83456 12188 ft 364 kts 19°
2026-05-06 12:46 47.57952 9.84704 11700 ft 361 kts 19°
2026-05-06 12:47 47.60313 9.85940 11227 ft 358 kts 19°
2026-05-06 12:47 47.62652 9.87164 10741 ft 356 kts 19°
2026-05-06 12:47 47.64927 9.88357 10294 ft 335 kts 19°
2026-05-06 12:47 47.67062 9.89477 9864 ft 316 kts 19°
2026-05-06 12:48 47.69101 9.90547 9433 ft 309 kts 19°
2026-05-06 12:48 47.71124 9.91609 9012 ft 307 kts 20°
2026-05-06 12:48 47.73127 9.92662 8608 ft 304 kts 19°
2026-05-06 12:48 47.73523 9.92871 8521 ft 303 kts 19°
2026-05-06 12:49 47.75366 9.93843 8157 ft 299 kts 19°
2026-05-06 12:49 47.77270 9.94846 7762 ft 280 kts 19°
2026-05-06 12:49 47.79021 9.95767 7408 ft 255 kts 20°
2026-05-06 12:49 47.80654 9.96629 7076 ft 251 kts 19°
2026-05-06 12:50 47.82307 9.97501 6750 ft 254 kts 20°
2026-05-06 12:50 47.83972 9.98381 6412 ft 253 kts 20°
2026-05-06 12:50 47.85620 9.99252 6076 ft 249 kts 20°
2026-05-06 12:50 47.87246 10.00113 5737 ft 246 kts 20°
2026-05-06 12:51 47.88825 10.01044 5403 ft 242 kts 28°
2026-05-06 12:51 47.90141 10.02561 5087 ft 239 kts 47°
2026-05-06 12:51 47.91062 10.04508 4816 ft 217 kts 62°
2026-05-06 12:51 47.91762 10.06355 4575 ft 193 kts 56°
2026-05-06 12:52 47.92510 10.07967 4359 ft 185 kts 57°
2026-05-06 12:52 47.93127 10.09460 4142 ft 151 kts 59°
2026-05-06 12:52 47.93622 10.10721 3939 ft 135 kts 59°
2026-05-06 12:52 47.94088 10.11895 3765 ft 129 kts 59°
2026-05-06 12:53 47.94546 10.13049 3589 ft 130 kts 59°
2026-05-06 12:53 47.95005 10.14207 3419 ft 129 kts 59°
2026-05-06 12:53 47.95458 10.15346 3250 ft 126 kts 59°
2026-05-06 12:53 47.95905 10.16470 3075 ft 124 kts 58°
2026-05-06 12:54 47.96333 10.17544 2905 ft 117 kts 58°
2026-05-06 12:54 47.96744 10.18585 2742 ft 115 kts 58°
2026-05-06 12:54 47.97138 10.19600 2624 ft 114 kts 58°
2026-05-06 12:54 47.97537 10.20587 2463 ft 106 kts 57°
2026-05-06 12:55 47.97916 10.21510 2268 ft 102 kts 59°
2026-05-06 12:55 47.98282 10.22437 2139 ft 105 kts 59°
2026-05-06 12:55 47.98621 10.23297 2075 ft 87 kts 59°
2026-05-06 12:55 47.98883 10.23954 2069 ft 55 kts 59°
2026-05-06 12:56 47.98993 10.24247 2064 ft 16 kts 75°
2026-05-06 12:56 47.99008 10.24251 2063 ft 8 kts 232°
2026-05-06 12:56 47.98962 10.24156 2065 ft 15 kts 239°
2026-05-06 12:56 47.98900 10.23994 2067 ft 21 kts 240°
2026-05-06 12:57 47.98826 10.23812 2073 ft 19 kts 238°
2026-05-06 12:57 47.98760 10.23640 2074 ft 15 kts 240°
2026-05-06 12:57 47.98710 10.23598 2074 ft 0 kts 153°
2026-05-06 12:57 47.98696 10.23613 2073 ft 7 kts 147°
2026-05-06 12:58 47.98655 10.23670 2073 ft 11 kts 142°
2026-05-06 12:58 47.98603 10.23639 2073 ft 6 kts 271°
2026-05-06 12:58 47.98615 10.23622 2073 ft 0 kts 330°